User: anonymous   Login
Location: Unspecified
(0.0000°N, 0.0000°E)
Time: 20:48:18
(UTC+00:00)
Language:

ONEWEB-0156 - Orbit

View from above orbital plane
View from above orbital plane
View from above satellite
View from above satellite

Ground track
Ground track

The orbit is defined by the following mean orbital elements,

1 48052U          26145.49340782 +.00000000 +00000-0 +76198-3 0 00001
2 48052  87.8951 324.7383 0001811  96.1814 263.9522 13.13468441    03
Epoch (UTC): 25 May 2026 11:50:30
Eccentricity: 0.0001811
inclination: 87.8951°
perigee height: 1208 km
apogee height: 1211 km
right ascension of ascending node: 324.7383°
argument of perigee: 96.1814°
revolutions per day: 13.13468441
mean anomaly at epoch: 263.9522°

The dashed part of the orbit path shows where the satellite is in the earth's shadow,  

DLR